period_start,C,m1,H,J0,J1,J2,J3,J4,J5,JA,JB,JC,JD,JJ,JK,JN,#
2015-07-31 00:00:01,0.02,0.53,0.00,23.91,27.42,29.80,4.81,24.77,1023.97,2038.49,3153.12,3138.00,3376.03,350.04,349.05,30.05,0000 0000 0000 0000 000000
2015-07-31 00:05:02,-0.00,0.52,0.00,23.90,27.42,29.79,4.83,24.92,1024.00,2038.36,3153.01,3137.99,3376.00,350.07,349.03,30.08,0000 0000 0000 0000 000000
2015-07-31 00:10:04,0.04,0.53,0.00,23.90,27.42,29.79,4.79,24.70,1024.03,2038.67,3153.00,3137.99,3376.00,350.18,349.19,30.11,0000 0000 0000 0000 000000
2015-07-31 00:15:05,0.00,0.53,0.00,23.90,27.42,29.79,4.73,24.68,1024.05,2038.71,3152.99,3137.98,3376.00,349.95,348.78,30.14,0000 0000 0000 0000 000000
2015-07-31 00:20:06,-0.01,0.53,0.00,23.90,27.42,29.78,4.77,24.59,1024.02,2038.61,3152.99,3137.97,3376.00,349.84,348.95,30.17,0000 0000 0000 0000 000000
2015-07-31 00:25:07,-0.05,0.52,0.00,23.92,27.42,29.80,4.71,24.62,1023.99,2038.23,3152.98,3137.90,3375.97,349.35,348.45,30.20,0000 0000 0000 0000 000000
2015-07-31 00:30:08,0.02,0.52,0.00,23.92,27.43,29.79,4.76,24.63,1024.04,2038.32,3152.98,3137.91,3375.99,349.65,348.79,30.22,0000 0000 0000 0000 000000
2015-07-31 00:35:09,-0.00,0.53,0.00,23.92,27.44,29.81,4.79,24.62,1024.00,2038.33,3152.97,3137.67,3375.95,350.18,349.36,30.25,0000 0000 0000 0000 000000
2015-07-31 00:40:11,0.08,0.53,0.00,23.92,27.45,29.81,4.78,24.83,1023.99,2038.47,3152.64,3137.42,3375.94,350.14,348.97,30.28,0000 0000 0000 0000 000000
2015-07-31 00:45:12,0.01,0.53,0.00,23.92,27.45,29.80,4.76,24.72,1024.05,2038.48,3152.49,3137.23,3375.90,349.70,349.07,30.31,0000 0000 0000 0000 000000
2015-07-31 00:50:13,-0.03,0.53,0.00,23.93,27.45,29.80,4.81,24.58,1024.25,2038.37,3152.27,3137.10,3375.68,350.25,349.33,30.34,0000 0000 0000 0000 000000
2015-07-31 00:55:15,0.04,0.53,0.00,23.94,27.45,29.81,4.81,24.61,1024.25,2038.47,3152.20,3137.06,3375.54,350.22,349.46,30.37,0000 0000 0000 0000 000000
2015-07-31 01:00:16,-0.04,0.53,0.00,23.95,27.45,29.82,4.74,24.59,1024.26,2038.28,3152.16,3137.03,3375.20,349.47,348.66,30.40,0000 0000 0000 0000 000000
2015-07-31 01:05:17,-0.00,0.53,0.00,23.97,27.45,29.82,4.75,24.87,1024.24,2038.08,3152.01,3137.00,3375.03,349.54,348.55,30.43,0000 0000 0000 0000 000000
2015-07-31 01:10:18,0.03,0.53,0.00,23.98,27.45,29.81,4.79,24.68,1024.17,2038.30,3152.01,3137.00,3375.05,350.10,349.22,30.46,0000 0000 0000 0000 000000
2015-07-31 01:15:20,-0.04,0.53,0.00,23.99,27.46,29.82,4.76,24.57,1024.13,2038.17,3152.01,3137.00,3375.01,349.87,348.93,30.49,0000 0000 0000 0000 000000
2015-07-31 01:20:21,-0.00,0.53,0.00,23.99,27.47,29.83,4.84,24.75,1024.00,2038.07,3152.00,3137.00,3375.00,350.29,349.20,30.52,0000 0000 0000 0000 000000
2015-07-31 01:25:22,0.01,0.53,0.00,23.98,27.47,29.83,4.73,24.58,1023.98,2038.12,3151.98,3136.99,3375.00,349.91,348.79,30.55,0000 0000 0000 0000 000000
2015-07-31 01:30:24,-0.01,0.53,0.00,23.99,27.47,29.83,4.85,24.62,1023.95,2038.11,3151.98,3136.99,3375.00,350.58,349.49,30.58,0000 0000 0000 0000 000000
2015-07-31 01:35:25,0.01,0.53,0.00,24.01,27.47,29.83,4.79,24.59,1023.95,2038.10,3151.86,3136.97,3374.98,349.93,348.64,30.61,0000 0000 0000 0000 000000
2015-07-31 01:40:26,-0.00,0.53,0.00,24.03,27.48,29.84,4.75,24.56,1023.97,2038.07,3151.87,3136.96,3374.98,350.18,349.20,30.64,0000 0000 0000 0000 000000
2015-07-31 01:45:27,0.00,0.53,0.00,24.03,27.50,29.84,4.80,24.68,1023.95,2038.03,3151.77,3136.91,3374.98,350.01,348.89,30.66,0000 0000 0000 0000 000000
2015-07-31 01:50:29,0.01,0.53,0.00,24.04,27.50,29.85,4.74,24.65,1023.95,2038.05,3151.53,3136.80,3374.96,349.71,348.56,30.69,0000 0000 0000 0000 000000
2015-07-31 01:55:30,0.02,0.53,0.00,24.05,27.50,29.87,4.77,24.60,1023.96,2038.08,3151.17,3136.77,3374.93,349.80,348.56,30.72,0000 0000 0000 0000 000000
2015-07-31 02:00:31,0.03,0.53,0.00,24.06,27.50,29.87,4.76,24.71,1023.97,2038.06,3151.04,3136.31,3374.63,349.93,348.69,30.75,0000 0000 0000 0000 000000
2015-07-31 02:05:32,0.01,0.53,0.00,24.07,27.51,29.89,4.75,24.82,1023.96,2038.03,3151.01,3136.07,3374.08,350.02,349.16,30.78,0000 0000 0000 0000 000000
2015-07-31 02:10:33,-0.00,0.53,0.00,24.07,27.52,29.88,4.73,24.66,1023.97,2038.01,3151.02,3136.06,3374.08,349.74,348.72,30.81,0000 0000 0000 0000 000000
2015-07-31 02:15:34,0.00,0.53,0.00,24.08,27.52,29.88,4.83,24.64,1023.97,2038.01,3151.02,3136.05,3374.03,350.50,349.20,30.84,0000 0000 0000 0000 000000
2015-07-31 02:20:35,0.00,0.53,0.00,24.09,27.52,29.89,4.73,24.61,1023.97,2038.01,3150.99,3136.00,3374.02,349.74,348.63,30.87,0000 0000 0000 0000 000000
2015-07-31 02:25:37,0.00,0.53,0.00,24.10,27.53,29.89,4.76,24.66,1023.98,2038.01,3150.99,3136.00,3374.00,349.57,348.57,30.90,0000 0000 0000 0000 000000
2015-07-31 02:30:38,0.00,0.53,0.00,24.12,27.55,29.90,4.77,24.65,1024.04,2038.02,3150.97,3136.00,3374.01,350.43,349.34,30.93,0000 0000 0000 0000 000000
2015-07-31 02:35:39,0.00,0.53,0.00,24.12,27.55,29.90,4.82,24.68,1024.18,2038.01,3150.93,3135.99,3374.00,350.57,349.50,30.96,0000 0000 0000 0000 000000
2015-07-31 02:40:40,-0.00,0.53,0.00,24.12,27.55,29.92,4.87,24.68,1024.21,2038.01,3150.95,3135.99,3373.99,350.45,349.43,30.99,0000 0000 0000 0000 000000
2015-07-31 02:45:42,0.00,0.53,0.00,24.13,27.55,29.92,4.81,24.67,1023.99,2038.00,3150.95,3135.99,3373.98,349.92,348.62,31.02,0000 0000 0000 0000 000000
2015-07-31 02:50:43,0.00,0.53,0.00,24.14,27.57,29.93,4.75,24.75,1023.98,2038.00,3150.88,3135.96,3373.95,349.94,348.91,31.04,0000 0000 0000 0000 000000
2015-07-31 02:55:44,0.02,0.53,0.00,24.15,27.57,29.93,4.83,24.57,1024.03,2038.00,3150.47,3135.90,3373.93,350.65,349.57,31.07,0000 0000 0000 0000 000000
2015-07-31 03:00:45,-0.01,0.53,0.00,24.17,27.57,29.95,4.75,24.58,1024.07,2038.00,3150.51,3135.90,3373.81,350.19,349.14,31.10,0000 0000 0000 0000 000000
2015-07-31 03:05:46,0.03,0.53,0.00,24.17,27.58,29.94,4.73,24.72,1024.00,2038.00,3150.17,3135.66,3373.46,349.52,348.38,31.13,0000 0000 0000 0000 000000
2015-07-31 03:10:47,0.01,0.53,0.00,24.19,27.60,29.95,4.73,24.59,1024.00,2037.99,3150.15,3135.39,3373.35,349.98,348.80,31.16,0000 0000 0000 0000 000000
2015-07-31 03:15:49,0.03,0.53,0.00,24.20,27.60,29.96,4.70,24.68,1024.13,2037.99,3150.00,3135.05,3373.05,349.48,348.40,31.19,0000 0000 0000 0000 000000
2015-07-31 03:20:50,-0.00,0.53,0.00,24.20,27.60,29.97,4.79,24.64,1024.13,2037.99,3149.99,3135.00,3373.01,350.05,348.90,31.22,0000 0000 0000 0000 000000
2015-07-31 03:25:51,0.02,0.53,0.00,24.20,27.62,29.98,4.76,24.58,1024.04,2037.99,3149.58,3135.00,3372.99,350.05,348.71,31.25,0000 0000 0000 0000 000000
2015-07-31 03:30:52,0.01,0.53,0.00,24.20,27.62,29.98,4.73,24.64,1024.01,2037.98,3149.12,3135.00,3372.94,349.91,348.53,31.28,0000 0000 0000 0000 000000
2015-07-31 03:35:53,0.00,0.53,0.00,24.22,27.62,29.99,4.79,24.59,1024.08,2037.99,3149.07,3135.00,3372.97,350.36,349.16,31.31,0000 0000 0000 0000 000000
2015-07-31 03:40:54,0.00,0.53,0.00,24.22,27.63,30.00,4.73,24.60,1024.13,2037.98,3149.03,3134.98,3372.85,349.75,348.51,31.34,0000 0000 0000 0000 000000
2015-07-31 03:45:56,0.00,0.53,0.00,24.22,27.65,30.01,4.71,24.65,1024.23,2037.96,3149.00,3134.96,3372.46,349.53,348.45,31.37,0000 0000 0000 0000 000000
2015-07-31 03:50:57,0.01,0.53,0.00,24.23,27.65,30.01,4.67,24.57,1024.36,2037.95,3149.00,3134.92,3372.15,349.94,348.84,31.40,0000 0000 0000 0000 000000
2015-07-31 03:55:58,0.00,0.53,0.00,24.25,27.65,30.01,4.76,24.57,1024.36,2037.93,3149.00,3134.91,3372.05,349.72,348.50,31.43,0000 0000 0000 0000 000000
2015-07-31 04:00:59,0.01,0.53,0.00,24.25,27.66,30.02,4.72,24.70,1024.34,2037.96,3149.00,3134.80,3372.02,349.57,348.58,31.45,0000 0000 0000 0000 000000
2015-07-31 04:06:01,0.00,0.53,0.00,24.25,27.67,30.03,4.72,24.70,1024.31,2037.90,3148.98,3134.47,3372.01,349.49,348.16,31.48,0000 0000 0000 0000 000000
2015-07-31 04:11:02,0.01,0.53,0.00,24.25,27.67,30.04,4.77,24.61,1024.08,2037.88,3148.95,3134.13,3372.00,350.52,349.04,31.51,0000 0000 0000 0000 000000
2015-07-31 04:16:03,0.00,0.53,0.00,24.25,27.68,30.04,4.78,24.61,1023.98,2037.86,3148.97,3134.14,3372.00,350.27,349.00,31.54,0000 0000 0000 0000 000000
2015-07-31 04:21:04,-0.01,0.53,0.00,24.27,27.70,30.05,4.77,24.55,1023.97,2037.75,3148.95,3134.06,3372.00,349.77,348.29,31.57,0000 0000 0000 0000 000000
2015-07-31 04:26:05,-0.00,0.53,0.00,24.27,27.70,30.06,4.79,24.44,1023.97,2037.66,3148.65,3134.03,3371.99,349.65,348.23,31.60,0000 0000 0000 0000 000000
2015-07-31 04:31:06,-0.01,0.53,0.00,24.27,27.70,30.07,4.72,24.52,1024.01,2037.67,3148.70,3134.01,3371.99,349.60,348.44,31.63,0000 0000 0000 0000 000000
2015-07-31 04:36:08,-0.04,0.53,0.00,24.27,27.71,30.07,4.80,24.57,1023.99,2037.39,3148.70,3134.01,3371.99,350.07,348.82,31.66,0000 0000 0000 0000 000000
2015-07-31 04:41:09,-0.02,0.53,0.00,24.28,27.72,30.07,4.78,24.59,1024.00,2037.24,3148.57,3134.00,3371.97,349.87,348.51,31.69,0000 0000 0000 0000 000000
2015-07-31 04:46:10,0.00,0.53,0.00,24.30,27.72,30.08,4.70,24.61,1024.00,2037.06,3148.32,3134.00,3371.82,349.40,347.70,31.72,0000 0000 0000 0000 000000
2015-07-31 04:51:12,-0.01,0.53,0.00,24.30,27.72,30.09,4.81,24.65,1023.98,2037.08,3148.38,3134.00,3371.83,349.83,348.67,31.75,0000 0000 0000 0000 000000
2015-07-31 04:56:13,0.01,0.53,0.00,24.30,27.72,30.09,4.70,24.57,1024.03,2037.03,3148.07,3133.99,3371.47,349.80,348.55,31.78,0000 0000 0000 0000 000000
2015-07-31 05:01:14,0.00,0.53,0.00,24.32,27.74,30.10,4.72,24.82,1024.01,2037.01,3148.10,3133.99,3371.44,349.44,348.15,31.81,0000 0000 0000 0000 000000
2015-07-31 05:06:16,0.01,0.53,0.00,24.32,27.75,30.10,4.76,24.73,1024.05,2037.02,3148.01,3133.98,3371.09,349.95,348.59,31.84,0000 0000 0000 0000 000000
2015-07-31 05:11:17,0.00,0.53,0.00,24.32,27.75,30.11,4.78,24.66,1024.01,2037.01,3148.01,3133.94,3371.05,349.67,348.65,31.86,0000 0000 0000 0000 000000
2015-07-31 05:16:18,0.00,0.53,0.00,24.33,27.75,30.12,4.73,24.74,1024.06,2037.00,3148.00,3133.90,3371.01,349.54,348.29,31.89,0000 0000 0000 0000 000000
2015-07-31 05:21:19,-0.00,0.53,0.00,24.34,27.76,30.12,4.79,24.64,1024.05,2037.00,3148.00,3133.91,3371.00,350.06,348.54,31.92,0000 0000 0000 0000 000000
2015-07-31 05:26:20,0.02,0.53,0.00,24.34,27.77,30.13,4.79,24.58,1024.00,2037.01,3147.99,3133.65,3371.00,349.87,348.59,31.95,0000 0000 0000 0000 000000
2015-07-31 05:31:21,0.01,0.53,0.00,24.34,27.77,30.13,4.72,24.50,1023.96,2037.00,3147.99,3133.34,3371.00,349.72,348.51,31.98,0000 0000 0000 0000 000000
2015-07-31 05:36:23,-0.00,0.53,0.00,24.35,27.78,30.14,4.76,24.56,1023.96,2037.00,3147.99,3133.35,3371.00,350.34,348.82,32.01,0000 0000 0000 0000 000000
2015-07-31 05:41:24,0.01,0.53,0.00,24.35,27.79,30.14,4.67,24.62,1023.95,2037.00,3147.94,3133.19,3370.99,349.61,348.22,32.04,0000 0000 0000 0000 000000
2015-07-31 05:46:25,0.00,0.53,0.00,24.37,27.80,30.15,4.76,24.57,1023.95,2037.00,3147.97,3133.10,3370.99,349.96,348.46,32.07,0000 0000 0000 0000 000000
2015-07-31 05:51:26,0.01,0.53,0.00,24.39,27.80,30.15,4.77,24.58,1023.95,2037.00,3147.82,3133.04,3370.99,350.01,348.57,32.10,0000 0000 0000 0000 000000
2015-07-31 05:56:27,0.01,0.53,0.00,24.39,27.80,30.17,4.76,24.69,1023.94,2037.00,3147.28,3133.01,3370.99,350.19,348.85,32.13,0000 0000 0000 0000 000000
2015-07-31 06:01:28,0.01,0.53,0.00,24.38,27.82,30.16,4.72,24.69,1023.94,2037.00,3147.07,3133.00,3370.96,349.54,348.06,32.16,0000 0000 0000 0000 000000
2015-07-31 06:06:30,0.01,0.53,0.00,24.40,27.82,30.17,4.79,24.59,1023.94,2037.00,3147.04,3133.00,3370.63,350.07,348.61,32.19,0000 0000 0000 0000 000000
2015-07-31 06:11:31,-0.00,0.53,0.00,24.40,27.82,30.18,4.76,24.51,1023.94,2037.00,3147.03,3133.00,3370.81,350.01,348.80,32.22,0000 0000 0000 0000 000000
2015-07-31 06:16:32,0.01,0.53,0.00,24.40,27.83,30.19,4.72,24.57,1023.94,2037.00,3147.00,3133.00,3370.58,350.33,348.93,32.25,0000 0000 0000 0000 000000
2015-07-31 06:21:34,0.01,0.53,0.00,24.40,27.85,30.19,4.76,24.57,1023.94,2037.00,3147.00,3132.99,3370.16,350.05,348.67,32.27,0000 0000 0000 0000 000000
2015-07-31 06:26:35,-0.00,0.53,0.00,24.39,27.85,30.20,4.77,24.58,1023.94,2037.00,3147.00,3132.98,3370.03,349.54,348.05,32.30,0000 0000 0000 0000 000000
2015-07-31 06:31:36,-0.00,0.53,0.00,24.40,27.85,30.21,4.73,24.58,1023.94,2036.99,3147.00,3132.97,3370.01,349.66,348.30,32.33,0000 0000 0000 0000 000000
2015-07-31 06:36:38,0.00,0.53,0.00,24.42,27.85,30.21,4.81,24.59,1023.94,2036.99,3147.00,3132.95,3370.02,349.79,348.23,32.36,0000 0000 0000 0000 000000
2015-07-31 06:41:39,0.00,0.54,0.00,24.42,27.87,30.22,4.75,24.52,1023.94,2036.98,3147.00,3132.89,3370.00,349.79,348.32,32.39,0000 0000 0000 0000 000000
2015-07-31 06:46:40,0.01,0.53,0.00,24.42,27.87,30.22,4.72,24.57,1023.94,2036.96,3146.99,3132.81,3370.00,349.78,348.28,32.42,0000 0000 0000 0000 000000
2015-07-31 06:51:41,-0.00,0.54,0.00,24.42,27.87,30.23,4.75,24.61,1023.94,2036.92,3146.99,3132.65,3369.99,349.64,348.17,32.45,0000 0000 0000 0000 000000
2015-07-31 06:56:42,0.00,0.54,0.00,24.42,27.87,30.24,4.81,24.69,1023.94,2036.95,3146.98,3132.69,3369.99,350.51,349.08,32.48,0000 0000 0000 0000 000000
2015-07-31 07:01:44,0.01,0.54,0.00,24.44,27.88,30.24,4.75,24.79,1023.94,2036.87,3146.90,3132.28,3369.98,349.84,348.45,32.51,0000 0000 0000 0000 000000
2015-07-31 07:06:45,0.00,0.54,0.00,24.44,27.89,30.24,4.77,24.63,1023.94,2036.84,3146.89,3132.15,3369.95,350.06,348.45,32.54,0000 0000 0000 0000 000000
2015-07-31 07:11:46,0.01,0.54,0.00,24.45,27.90,30.26,4.67,24.42,1023.94,2036.93,3146.97,3132.32,3369.98,349.89,348.47,32.57,0000 0000 0000 0000 000000
2015-07-31 07:16:47,-0.01,0.54,0.00,24.45,27.90,30.25,4.70,24.57,1023.94,2036.81,3146.89,3132.10,3369.95,349.85,348.30,32.60,0000 0000 0000 0000 000000
2015-07-31 07:21:49,-0.00,0.53,0.00,24.46,27.90,30.26,4.75,24.50,1023.94,2036.54,3146.36,3132.01,3369.73,350.01,348.59,32.63,0000 0000 0000 0000 000000
2015-07-31 07:26:50,0.03,0.54,0.00,24.47,27.90,30.27,4.78,24.50,1023.94,2036.81,3146.22,3132.01,3369.81,350.28,348.70,32.66,0000 0000 0000 0000 000000
2015-07-31 07:31:52,0.01,0.54,0.00,24.47,27.92,30.28,4.76,24.57,1023.95,2036.83,3146.03,3132.00,3369.63,349.87,348.28,32.68,0000 0000 0000 0000 000000
2015-07-31 07:36:53,-0.02,0.54,0.00,24.47,27.92,30.27,4.72,24.52,1023.94,2036.63,3146.02,3132.00,3369.34,349.78,348.20,32.71,0000 0000 0000 0000 000000
2015-07-31 07:41:54,-0.01,0.54,0.00,24.47,27.92,30.28,4.79,24.60,1023.94,2036.50,3146.01,3132.00,3369.13,349.98,348.42,32.74,0000 0000 0000 0000 000000
2015-07-31 07:46:56,-0.02,0.54,0.00,24.47,27.92,30.28,4.71,24.50,1023.94,2036.40,3146.06,3132.00,3369.12,349.68,348.02,32.77,0000 0000 0000 0000 000000
2015-07-31 07:51:57,-0.03,0.53,0.00,24.48,27.93,30.28,4.75,24.61,1023.94,2036.21,3146.03,3132.00,3369.08,349.99,348.33,32.80,0000 0000 0000 0000 000000
2015-07-31 07:56:58,-0.01,0.53,0.00,24.49,27.94,30.29,4.70,24.53,1023.94,2036.04,3146.00,3131.99,3369.01,349.74,348.18,32.83,0000 0000 0000 0000 000000
2015-07-31 08:01:59,-0.00,0.53,0.00,24.47,27.95,30.29,4.76,24.77,1023.94,2036.04,3146.00,3131.99,3369.00,349.98,348.45,32.86,0000 0000 0000 0000 000000
2015-07-31 08:07:01,0.00,0.53,0.00,24.48,27.95,30.30,4.75,24.68,1023.93,2036.02,3145.99,3131.98,3368.99,350.07,348.55,32.89,0000 0000 0000 0000 000000
2015-07-31 08:12:02,-0.00,0.53,0.00,24.47,27.95,30.30,4.74,24.57,1023.90,2036.01,3145.99,3131.97,3368.99,349.40,347.93,32.92,0000 0000 0000 0000 000000
2015-07-31 08:17:03,0.00,0.53,0.00,24.47,27.95,30.31,4.73,24.58,1023.83,2036.03,3145.99,3131.96,3368.99,349.91,348.39,32.95,0000 0000 0000 0000 000000
2015-07-31 08:22:04,0.00,0.53,0.00,24.48,27.96,30.31,4.71,24.79,1023.89,2036.02,3145.96,3131.94,3368.99,349.55,347.91,32.98,0000 0000 0000 0000 000000
2015-07-31 08:27:05,-0.00,0.53,0.00,24.49,27.97,30.32,4.83,24.87,1023.94,2036.03,3145.98,3131.94,3368.99,350.40,348.78,33.01,0000 0000 0000 0000 000000
2015-07-31 08:32:06,0.02,0.53,0.00,24.49,27.97,30.32,4.81,25.06,1023.94,2036.03,3145.85,3131.77,3368.98,350.48,349.08,33.04,0000 0000 0000 0000 000000
2015-07-31 08:37:08,0.03,0.54,0.00,24.48,27.97,30.32,4.66,24.89,1023.94,2036.01,3145.23,3131.19,3368.95,349.32,347.85,33.07,0000 0000 0000 0000 000000
2015-07-31 08:42:09,0.02,0.54,0.00,24.49,27.97,30.33,4.67,24.97,1023.94,2036.01,3145.03,3131.04,3368.70,349.76,348.39,33.09,0000 0000 0000 0000 000000
2015-07-31 08:47:10,0.01,0.54,0.00,24.49,27.97,30.33,4.63,24.78,1023.93,2036.02,3145.00,3131.01,3368.24,349.29,347.73,33.12,0000 0000 0000 0000 000000
2015-07-31 08:52:11,0.00,0.54,0.00,24.47,27.97,30.33,4.74,24.78,1023.94,2036.01,3145.00,3131.01,3368.11,349.74,348.28,33.15,0000 0000 0000 0000 000000
2015-07-31 08:57:13,0.00,0.54,0.00,24.47,27.98,30.34,4.72,24.80,1023.94,2036.00,3145.00,3131.00,3368.04,349.99,348.59,33.18,0000 0000 0000 0000 000000
2015-07-31 09:02:14,0.01,0.54,0.00,24.48,27.99,30.35,4.81,24.98,1023.93,2036.00,3144.79,3130.97,3368.00,350.22,348.66,33.21,0000 0000 0000 0000 000000
2015-07-31 09:07:15,0.02,0.54,0.00,24.47,27.99,30.33,4.86,24.88,1023.88,2036.00,3144.14,3130.81,3367.97,350.54,348.77,33.24,0000 0000 0000 0000 000000
2015-07-31 09:12:16,0.01,0.54,0.00,24.47,28.00,30.34,4.71,24.67,1023.87,2036.00,3144.06,3130.70,3367.97,349.78,348.44,33.27,0000 0000 0000 0000 000000
2015-07-31 09:17:17,0.03,0.54,0.00,24.47,28.00,30.34,4.70,24.69,1023.90,2036.00,3144.00,3130.18,3367.66,349.41,347.90,33.30,0000 0000 0000 0000 000000
2015-07-31 09:22:18,-0.00,0.54,0.00,24.47,28.00,30.35,4.82,24.90,1023.90,2036.00,3144.00,3130.08,3367.60,350.27,348.72,33.33,0000 0000 0000 0000 000000
2015-07-31 09:27:19,0.01,0.54,0.00,24.48,28.00,30.35,4.85,24.89,1023.91,2036.00,3143.98,3130.04,3367.34,350.30,348.61,33.36,0000 0000 0000 0000 000000
2015-07-31 09:32:21,0.01,0.54,0.00,24.49,28.00,30.35,4.85,24.71,1023.91,2036.00,3143.89,3130.01,3367.21,349.71,348.06,33.39,0000 0000 0000 0000 000000
2015-07-31 09:37:22,0.01,0.54,0.00,24.50,28.00,30.35,4.83,24.68,1023.92,2036.01,3143.71,3130.00,3367.17,350.02,348.70,33.42,0000 0000 0000 0000 000000
2015-07-31 09:42:23,-0.01,0.54,0.00,24.49,28.00,30.35,4.77,24.62,1023.92,2036.01,3143.73,3130.00,3367.34,350.32,348.80,33.45,0000 0000 0000 0000 000000
2015-07-31 09:47:24,0.00,0.54,0.00,24.47,28.00,30.36,4.77,24.57,1023.94,2036.00,3143.85,3130.00,3367.11,349.84,348.24,33.48,0000 0000 0000 0000 000000
2015-07-31 09:52:26,0.00,0.54,0.00,24.47,28.00,30.36,4.65,24.65,1023.94,2036.02,3143.92,3130.00,3367.05,349.56,348.09,33.51,0000 0000 0000 0000 000000
2015-07-31 09:57:27,-0.00,0.54,0.00,24.48,28.00,30.35,4.81,24.77,1023.94,2036.01,3143.94,3130.00,3367.04,350.42,348.78,33.53,0000 0000 0000 0000 000000
2015-07-31 10:02:28,0.02,0.54,0.00,24.47,28.00,30.35,4.69,24.83,1023.94,2036.00,3143.60,3130.00,3367.02,349.25,347.83,33.56,0000 0000 0000 0000 000000
2015-07-31 10:07:29,-0.00,0.54,0.00,24.48,28.00,30.36,4.78,24.72,1023.93,2036.00,3143.14,3129.99,3367.00,350.23,348.38,33.59,0000 0000 0000 0000 000000
2015-07-31 10:12:31,0.00,0.54,0.00,24.46,28.01,30.36,4.75,24.55,1023.94,2036.00,3143.04,3129.98,3367.00,349.86,348.15,33.62,0000 0000 0000 0000 000000
2015-07-31 10:17:32,0.00,0.54,0.00,24.46,28.01,30.36,4.81,24.69,1023.94,2036.00,3143.02,3129.98,3366.99,350.01,348.41,33.65,0000 0000 0000 0000 000000
2015-07-31 10:22:34,0.00,0.54,0.00,24.47,28.01,30.37,4.81,24.59,1023.94,2036.00,3143.00,3129.97,3366.98,349.84,348.21,33.68,0000 0000 0000 0000 000000
2015-07-31 10:27:35,0.00,0.54,0.00,24.46,28.01,30.36,4.68,24.48,1023.94,2036.00,3143.00,3129.87,3366.95,349.56,348.20,33.71,0000 0000 0000 0000 000000
2015-07-31 10:32:36,0.01,0.54,0.00,24.46,28.01,30.37,4.78,24.55,1023.94,2036.00,3142.98,3129.67,3366.82,350.33,348.45,33.74,0000 0000 0000 0000 000000
2015-07-31 10:37:37,0.01,0.54,0.00,24.45,28.01,30.36,4.74,24.57,1023.94,2036.00,3142.96,3129.55,3366.73,350.04,348.41,33.77,0000 0000 0000 0000 000000
2015-07-31 10:42:38,0.03,0.54,0.00,24.45,28.01,30.37,4.80,24.70,1023.94,2036.00,3142.82,3129.26,3366.32,349.76,348.33,33.80,0000 0000 0000 0000 000000
2015-07-31 10:47:40,0.01,0.54,0.00,24.43,28.01,30.35,4.85,24.61,1023.94,2036.00,3142.51,3129.10,3366.23,350.20,348.84,33.83,0000 0000 0000 0000 000000
2015-07-31 10:52:41,0.01,0.54,0.00,24.44,28.01,30.35,4.79,24.60,1023.93,2036.01,3142.18,3129.06,3366.19,350.07,348.60,33.86,0000 0000 0000 0000 000000
2015-07-31 10:57:42,0.00,0.54,0.00,24.44,28.02,30.35,4.72,24.52,1023.91,2036.00,3142.03,3129.02,3366.03,349.88,348.49,33.89,0000 0000 0000 0000 000000
2015-07-31 11:02:43,0.00,0.54,0.00,24.44,28.01,30.36,4.73,24.77,1023.90,2036.00,3142.00,3129.00,3366.01,349.94,348.51,33.92,0000 0000 0000 0000 000000
2015-07-31 11:07:45,0.00,0.54,0.00,24.45,28.01,30.37,4.82,24.65,1023.87,2036.00,3142.00,3129.00,3366.00,350.32,348.76,33.94,0000 0000 0000 0000 000000
2015-07-31 11:12:46,-0.00,0.54,0.00,24.44,28.01,30.36,4.72,24.49,1023.88,2036.00,3141.99,3129.00,3366.00,350.24,348.79,33.97,0000 0000 0000 0000 000000
2015-07-31 11:17:47,0.00,0.54,0.00,24.44,28.01,30.37,4.69,24.53,1023.83,2036.00,3141.99,3129.00,3366.00,349.58,348.16,34.00,0000 0000 0000 0000 000000
2015-07-31 11:22:48,0.00,0.54,0.00,24.42,28.01,30.36,4.80,24.62,1023.87,2036.00,3141.99,3128.99,3365.99,349.99,348.59,34.03,0000 0000 0000 0000 000000
2015-07-31 11:27:50,0.00,0.54,0.00,24.42,28.00,30.35,4.80,24.56,1023.82,2036.01,3141.97,3128.99,3365.99,350.22,348.71,34.06,0000 0000 0000 0000 000000
2015-07-31 11:32:51,0.00,0.54,0.00,24.42,28.00,30.36,4.74,24.55,1023.76,2036.00,3141.98,3128.99,3365.99,349.51,347.81,34.09,0000 0000 0000 0000 000000
2015-07-31 11:37:52,0.00,0.54,0.00,24.40,28.00,30.37,4.80,24.64,1023.76,2036.00,3141.90,3128.98,3365.96,349.81,348.39,34.12,0000 0000 0000 0000 000000
2015-07-31 11:42:53,0.00,0.54,0.00,24.40,28.00,30.37,4.77,24.65,1023.78,2036.00,3141.59,3128.96,3365.93,350.24,348.64,34.15,0000 0000 0000 0000 000000
2015-07-31 11:47:54,0.01,0.54,0.00,24.40,28.00,30.35,4.80,24.66,1023.70,2036.01,3141.54,3128.93,3365.94,350.23,348.63,34.18,0000 0000 0000 0000 000000
2015-07-31 11:52:55,0.04,0.54,0.00,24.40,28.00,30.35,4.74,24.54,1023.51,2036.00,3141.10,3128.66,3365.57,349.99,348.49,34.21,0000 0000 0000 0000 000000
2015-07-31 11:57:57,0.02,0.54,0.00,24.39,28.00,30.37,4.80,24.55,1023.48,2036.00,3141.00,3128.37,3365.28,350.37,348.79,34.24,0000 0000 0000 0000 000000
2015-07-31 12:02:58,0.01,0.55,0.00,24.40,28.00,30.35,4.75,24.73,1023.48,2036.00,3141.00,3128.07,3365.04,349.88,348.35,34.27,0000 0000 0000 0000 000000
2015-07-31 12:07:59,0.00,0.55,0.00,24.39,28.00,30.34,4.73,24.48,1023.48,2036.00,3140.99,3128.06,3365.04,349.43,348.03,34.30,0000 0000 0000 0000 000000
2015-07-31 12:13:01,0.00,0.55,0.00,24.37,28.00,30.36,4.76,24.66,1023.46,2036.00,3140.98,3128.02,3365.01,349.95,348.18,34.33,0000 0000 0000 0000 000000
2015-07-31 12:18:02,0.00,0.55,0.00,24.37,28.00,30.36,4.76,24.52,1023.47,2036.00,3140.98,3128.01,3365.01,350.28,348.63,34.35,0000 0000 0000 0000 000000
2015-07-31 12:23:02,0.00,0.55,0.00,24.37,28.00,30.37,4.75,24.62,1023.48,2036.00,3140.97,3128.01,3365.00,350.02,348.28,34.38,0000 0000 0000 0000 000000
2015-07-31 12:28:03,0.00,0.55,0.00,24.37,28.00,30.35,4.77,24.66,1023.48,2036.00,3140.91,3128.00,3365.00,349.86,348.20,34.41,0000 0000 0000 0000 000000
2015-07-31 12:33:05,0.01,0.55,0.00,24.35,27.99,30.35,4.71,24.59,1023.48,2036.00,3140.56,3128.00,3365.00,349.57,347.95,34.44,0000 0000 0000 0000 000000
2015-07-31 12:38:06,0.01,0.55,0.00,24.35,27.99,30.35,4.76,24.62,1023.49,2036.01,3140.15,3128.00,3364.99,350.16,348.75,34.47,0000 0000 0000 0000 000000
2015-07-31 12:43:07,-0.00,0.55,0.00,24.35,27.97,30.35,4.79,24.50,1023.47,2036.01,3140.10,3128.00,3364.99,349.85,348.35,34.50,0000 0000 0000 0000 000000
2015-07-31 12:48:09,0.00,0.55,0.00,24.35,27.97,30.33,4.76,24.52,1023.46,2036.01,3140.04,3128.00,3364.97,349.78,348.15,34.53,0000 0000 0000 0000 000000
2015-07-31 12:53:10,-0.00,0.55,0.00,24.35,27.97,30.36,4.71,24.64,1023.46,2036.01,3140.00,3127.97,3364.97,349.91,348.39,34.56,0000 0000 0000 0000 000000
2015-07-31 12:58:12,0.00,0.55,0.00,24.34,27.97,30.38,4.82,24.58,1023.46,2036.01,3140.00,3127.98,3364.90,349.99,348.40,34.59,0000 0000 0000 0000 000000